This is the latest recevied weather packets stored in our database for station/object KB4MOX. If no packets are shown the sender has not sent any weather packets the latest 10 day(s).
| Time | Temp. | Humidity | Pressure | Rain* | Wind** | Luminosity | Snow |
|---|---|---|---|---|---|---|---|
| 1787493069 | 27.78° C | 72% | 1016.2 hPa | 0 mm | - | 214 W/m² | - |
| 1787492764 | 27.22° C | 74% | 1016.2 hPa | 0 mm | - | 232 W/m² | - |
| 1787492460 | 27.22° C | 75% | 1016.3 hPa | 0 mm | - | 121 W/m² | - |
| 1787492155 | 26.67° C | 75% | 1016.2 hPa | 0 mm | - | 88 W/m² | - |
| 1787491851 | 26.67° C | 76% | 1016.1 hPa | 0 mm | - | 80 W/m² | - |
| 1787491546 | 26.67° C | 76% | 1016 hPa | 0 mm | - | 75 W/m² | - |
| 1787491241 | 26.11° C | 77% | 1016 hPa | 0 mm | - | 79 W/m² | - |
| 1787490937 | 26.11° C | 77% | 1015.9 hPa | 0 mm | - | 84 W/m² | - |
| 1787490632 | 26.11° C | 78% | 1016.1 hPa | 0 mm | - | 63 W/m² | - |
| 1787490331 | 26.11° C | 78% | 1016 hPa | 0 mm | - | 65 W/m² | - |
| 1787490030 | 25.56° C | 79% | 1015.9 hPa | 0 mm | - | 68 W/m² | - |
| 1787489725 | 25° C | 82% | 1015.6 hPa | 0 mm | - | 67 W/m² | - |
| 1787489421 | 25° C | 83% | 1015.7 hPa | 0 mm | - | 58 W/m² | - |
| 1787489117 | 24.44° C | 84% | 1015.7 hPa | 0 mm | - | 49 W/m² | - |
| 1787488812 | 23.89° C | 86% | 1015.6 hPa | 0 mm | - | 49 W/m² | - |
| 1787488508 | 23.33° C | 89% | 1015.6 hPa | 0 mm | - | 50 W/m² | - |
| 1787488203 | 22.78° C | 92% | 1015.6 hPa | 0 mm | - | 48 W/m² | - |
| 1787487902 | 22.22° C | 94% | 1015.4 hPa | 0 mm | - | 45 W/m² | - |
| 1787487598 | 22.22° C | 95% | 1015.3 hPa | 0 mm | - | 41 W/m² | - |
| 1787487294 | 21.67° C | 95% | 1015.5 hPa | 0 mm | - | 44 W/m² | - |
| 1787486990 | 21.67° C | 95% | 1015.2 hPa | 0 mm | - | 38 W/m² | - |
| 1787486689 | 21.67° C | 95% | 1015.3 hPa | 0 mm | - | 32 W/m² | - |
| 1787486389 | 21.67° C | 96% | 1015.2 hPa | 0 mm | - | 29 W/m² | - |
| 1787486084 | 21.67° C | 96% | 1015.2 hPa | 0 mm | - | 30 W/m² | - |
| 1787485779 | 21.67° C | 96% | 1015.1 hPa | 0 mm | - | 30 W/m² | - |
* Rain latest hour (hover to see other rain measurements)
** Current wind speed in m/s (hover to see current wind gust speed)